SCOUT A DEB, 2353

Orbit data source: Space-Track

SCOUT A DEB, 2353 is space debris in LEO originally from a launch on Sat, 26 Mar 1966 UTC launched from the Air Force Western Test Range (AFWTR). Debris objects in space refer to the collection of defunct objects orbiting the Earth. Examples of debris include non-operational satellites, rocket bodies, and fragments generated from explosions, collisions, or faulty payload assembly.

Loading next visibility...
Identifier
2353, 1966-024C
Orbit
LEO
Country
Flag of USUS
Related business
Manufacturer
Unknown
Mission
Spacecraft
Bus & Motor
Unknown
Mass
Unknown
Launch date (UTC)
1966-03-26 (59 years ago)
Launch vehicle
Unknown
Launch site
Air Force Western Test Range (AFWTR)
Object type
Payload
Rocket body
Debris
Shape & HBR
Unknown
Radar Cross Section
Small (<0.1 m²)

Expand to show TLE details & history
Last TLE update: 18 hours ago

TLE from 18 hours ago
0 SCOUT A DEB
1 02353U 66024C   25259.87333948  .00000332  00000-0  29552-3 0  9993
2 02353  89.3918  31.2890 0151883 177.5016 182.6945 13.77369456977413
Epoch: 2025-09-16T20:57Z
TLE epoch observation values (Epoch: 2025-09-16T20:57:36.531Z)
Latitude
0.00004°
Longitude
80.82939°
Altitude
1,087.783 km
Speed
7.253 km/s
True Right ascension
02h 05m 09s
True Declination
0° 00' 00"
Sunlit
Object was in full shadow at epoch
Visualization orbit readout
Latitude
Unknown
Longitude
Unknown
Altitude
Unknown
Speed
Unknown
Apparent Right ascension
Unknown
Apparent Declination
Unknown
Sunlit
N/A
Visualization observer readout
Local Sidereal Time
07:14:57
Azimuth
Unknown
Elevation
Unknown
Doppler factor
Unknown
Orbital elements
Apogee altitude
1,081.851 km
Perigee altitude
858.632 km
Semi-major axis
7,348.379 km
Eccentricity
0.01519
Inclination
89.3918°
RAAN
31.289°
Arg. of periapsis
177.5016°
True anomaly
182.6142°
Mean anomaly
182.6945°
Eccentric anomaly
182.6542°
Mean motion
3.44553 °/min
Orbital period
104.48 mins
BSTAR
0.00029552
Loading maneuver chart data...
Computing Atmospheric mass density...
Loading historical data...
Loading historical data...
Loading historical data...
Loading historical data...
Loading historical data...
Loading historical data...
Loading historical data...

Documentation

Showing up to 5 results
|